QPF
0.20 0.33 0.52 0.84 1.21 1.57 1.98 2.13 2.00 1.58 1.17 0.91 0.71 0.52 0.32 0.19 0.12 0.08 0.06 0.03 0.01 0.00 0.00 0.00 0.00 0.00 0.00 0.00 0.00 0.00 0.00 0.00 0.00 0.00 0.00 0.00 0.00 0.00 0.00 0.01 0.01 0.02 0.04
0.18 0.34 0.59 1.00 1.17 1.40 1.85 1.98 1.58 1.14 0.90 0.72 0.57 0.42 0.29 0.23 0.20 0.12 0.06 0.03 0.01 0.00 0.00 0.00 0.00 0.00 0.00 0.00 0.00 0.00 0.00 0.00 0.00 0.00 0.00 0.00 0.00 0.00 0.00 0.01 0.02 0.03 0.05
0.16 0.24 0.43 0.63 0.66 0.78 0.91 0.84 0.75 0.57 0.51 0.46 0.41 0.37 0.28 0.24 0.17 0.11 0.07 0.06 0.04 0.02 0.01 0.00 0.00 0.00 0.00 0.00 0.00 0.00 0.00 0.00 0.00 0.00 0.00 0.00 0.00 0.00 0.00 0.00 0.01 0.03 0.06
0.07 0.11 0.16 0.24 0.25 0.23 0.23 0.27 0.35 0.33 0.34 0.37 0.28 0.29 0.25 0.20 0.14 0.08 0.07 0.07 0.05 0.03 0.01 0.01 0.01 0.00 0.00 0.00 0.00 0.00 0.00 0.00 0.00 0.00 0.00 0.01 0.01 0.01 0.00 0.00 0.00 0.02 0.05
0.03 0.06 0.06 0.07 0.08 0.08 0.10 0.13 0.22 0.28 0.28 0.27 0.20 0.16 0.15 0.12 0.09 0.09 0.10 0.10 0.07 0.05 0.04 0.02 0.01 0.01 0.00 0.00 0.00 0.00 0.00 0.00 0.00 0.00 0.00 0.00 0.01 0.01 0.01 0.00 0.00 0.00 0.02
0.01 0.01 0.02 0.02 0.03 0.06 0.07 0.08 0.11 0.14 0.16 0.17 0.15 0.13 0.12 0.12 0.11 0.10 0.10 0.09 0.09 0.08 0.07 0.04 0.02 0.02 0.02 0.01 0.00 0.00 0.00 0.00 0.00 0.00 0.00 0.00 0.00 0.01 0.01 0.01 0.00 0.01 0.01
0.01 0.00 0.00 0.01 0.01 0.02 0.03 0.04 0.05 0.07 0.09 0.10 0.11 0.11 0.12 0.12 0.12 0.09 0.08 0.08 0.08 0.10 0.10 0.07 0.05 0.03 0.03 0.02 0.01 0.00 0.00 0.00 0.00 0.00 0.00 0.00 0.00 0.01 0.01 0.01 0.01 0.01 0.02
0.00 0.00 0.00 0.00 0.00 0.00 0.01 0.01 0.01 0.02 0.02 0.03 0.04 0.04 0.06 0.08 0.09 0.09 0.08 0.07 0.09 0.12 0.13 0.11 0.10 0.08 0.06 0.04 0.03 0.01 0.01 0.00 0.00 0.00 0.00 0.00 0.00 0.00 0.01 0.01 0.01 0.01 0.01
0.00 0.00 0.00 0.00 0.00 0.00 0.00 0.00 0.00 0.00 0.00 0.00 0.01 0.01 0.02 0.03 0.05 0.06 0.06 0.07 0.09 0.11 0.12 0.12 0.12 0.11 0.08 0.06 0.04 0.02 0.01 0.01 0.00 0.00 0.00 0.00 0.00 0.00 0.01 0.01 0.02 0.02 0.01
0.00 0.00 0.00 0.00 0.00 0.00 0.00 0.00 0.00 0.00 0.00 0.00 0.00 0.00 0.00 0.01 0.01 0.01 0.02 0.03 0.04 0.05 0.07 0.08 0.08 0.08 0.08 0.07 0.06 0.03 0.02 0.01 0.00 0.00 0.00 0.00 0.00 0.00 0.01 0.01 0.02 0.04 0.03
0.00 0.00 0.00 0.00 0.00 0.00 0.00 0.00 0.00 0.00 0.00 0.00 0.00 0.00 0.00 0.00 0.00 0.00 0.00 0.00 0.01 0.01 0.01 0.02 0.03 0.04 0.05 0.06 0.06 0.04 0.03 0.02 0.01 0.00 0.00 0.00 0.00 0.00 0.01 0.01 0.02 0.04 0.05
0.00 0.00 0.00 0.00 0.00 0.00 0.00 0.00 0.00 0.00 0.00 0.00 0.00 0.00 0.00 0.00 0.00 0.00 0.00 0.00 0.00 0.00 0.00 0.00 0.00 0.01 0.02 0.04 0.05 0.04 0.03 0.03 0.02 0.01 0.01 0.00 0.00 0.00 0.00 0.01 0.02 0.04 0.07
0.00 0.00 0.00 0.00 0.00 0.00 0.00 0.00 0.00 0.00 0.00 0.00 0.00 0.00 0.00 0.00 0.00 0.00 0.00 0.00 0.00 0.00 0.00 0.00 0.00 0.00 0.01 0.02 0.03 0.03 0.03 0.03 0.02 0.01 0.01 0.01 0.00 0.00 0.00 0.01 0.02 0.03 0.04
0.00 0.00 0.00 0.00 0.00 0.00 0.00 0.00 0.00 0.00 0.00 0.00 0.00 0.00 0.00 0.00 0.00 0.00 0.00 0.00 0.00 0.00 0.00 0.00 0.00 0.00 0.00 0.01 0.02 0.03 0.04 0.05 0.04 0.03 0.02 0.02 0.01 0.00 0.00 0.00 0.01 0.02 0.03
0.00 0.00 0.00 0.00 0.00 0.00 0.00 0.00 0.00 0.00 0.00 0.00 0.00 0.00 0.00 0.00 0.00 0.00 0.00 0.00 0.00 0.00 0.00 0.00 0.00 0.00 0.00 0.00 0.01 0.03 0.04 0.06 0.05 0.05 0.04 0.03 0.01 0.00 0.00 0.00 0.00 0.01 0.02
0.00 0.00 0.00 0.00 0.00 0.00 0.00 0.00 0.00 0.00 0.00 0.00 0.00 0.00 0.00 0.00 0.00 0.00 0.00 0.00 0.00 0.00 0.00 0.00 0.00 0.00 0.00 0.00 0.00 0.01 0.02 0.05 0.07 0.07 0.06 0.04 0.02 0.01 0.00 0.00 0.00 0.00 0.01
0.00 0.00 0.00 0.00 0.00 0.00 0.00 0.00 0.00 0.00 0.00 0.00 0.00 0.00 0.00 0.00 0.00 0.00 0.00 0.00 0.00 0.00 0.00 0.00 0.00 0.00 0.00 0.00 0.00 0.01 0.02 0.04 0.07 0.09 0.08 0.05 0.02 0.01 0.01 0.00 0.00 0.00 0.01
0.00 0.00 0.00 0.00 0.00 0.00 0.00 0.00 0.00 0.00 0.00 0.00 0.00 0.00 0.00 0.00 0.00 0.00 0.00 0.00 0.00 0.01 0.00 0.00 0.00 0.00 0.00 0.00 0.00 0.01 0.02 0.04 0.07 0.10 0.09 0.06 0.03 0.01 0.01 0.01 0.00 0.00 0.01
0.00 0.00 0.00 0.00 0.00 0.00 0.00 0.00 0.00 0.00 0.01 0.01 0.01 0.01 0.01 0.01 0.01 0.00 0.00 0.00 0.01 0.01 0.00 0.00 0.00 0.00 0.00 0.00 0.00 0.01 0.02 0.05 0.09 0.12 0.12 0.08 0.04 0.02 0.01 0.01 0.00 0.01 0.02
0.00 0.00 0.00 0.00 0.00 0.00 0.00 0.01 0.01 0.01 0.01 0.02 0.02 0.02 0.02 0.02 0.02 0.01 0.01 0.00 0.01 0.01 0.01 0.00 0.00 0.00 0.00 0.00 0.00 0.01 0.03 0.07 0.12 0.16 0.16 0.13 0.08 0.04 0.02 0.01 0.00 0.01 0.01
0.00 0.00 0.00 0.00 0.00 0.00 0.01 0.02 0.02 0.02 0.02 0.03 0.03 0.03 0.03 0.03 0.02 0.02 0.01 0.01 0.01 0.01 0.01 0.00 0.00 0.00 0.00 0.00 0.00 0.01 0.03 0.08 0.14 0.19 0.20 0.16 0.11 0.06 0.02 0.01 0.00 0.01 0.01
0.00 0.00 0.00 0.00 0.00 0.00 0.02 0.03 0.02 0.02 0.03 0.03 0.03 0.02 0.02 0.02 0.02 0.02 0.02 0.02 0.01 0.01 0.01 0.01 0.00 0.01 0.01 0.00 0.00 0.01 0.03 0.09 0.18 0.25 0.25 0.22 0.17 0.10 0.04 0.02 0.01 0.01 0.01
0.00 0.00 0.00 0.00 0.00 0.01 0.02 0.03 0.03 0.03 0.03 0.03 0.03 0.03 0.03 0.03 0.03 0.03 0.03 0.02 0.02 0.01 0.01 0.01 0.01 0.01 0.01 0.01 0.01 0.01 0.03 0.10 0.21 0.32 0.38 0.32 0.24 0.15 0.07 0.03 0.01 0.01 0.01
0.00 0.00 0.01 0.01 0.01 0.01 0.01 0.02 0.03 0.04 0.04 0.04 0.04 0.04 0.05 0.04 0.05 0.05 0.04 0.03 0.02 0.02 0.01 0.01 0.02 0.02 0.02 0.02 0.02 0.01 0.03 0.12 0.26 0.37 0.42 0.39 0.31 0.20 0.12 0.06 0.01 0.00 0.00
0.00 0.01 0.01 0.01 0.02 0.01 0.02 0.02 0.03 0.04 0.05 0.04 0.04 0.05 0.05 0.05 0.05 0.05 0.04 0.04 0.03 0.02 0.02 0.02 0.02 0.02 0.02 0.03 0.04 0.04 0.06 0.16 0.31 0.40 0.45 0.44 0.34 0.22 0.14 0.07 0.02 0.00 0.00
0.01 0.01 0.02 0.02 0.02 0.02 0.03 0.03 0.04 0.05 0.06 0.06 0.05 0.06 0.06 0.06 0.05 0.04 0.04 0.03 0.02 0.01 0.01 0.01 0.01 0.01 0.01 0.03 0.04 0.05 0.09 0.21 0.35 0.43 0.45 0.40 0.29 0.19 0.11 0.06 0.02 0.00 0.00
MSLP
1012.59 1012.43 1012.17 1011.83 1011.44 1011.04 1010.67 1010.35 1010.09 1009.91 1009.79 1009.70 1009.63 1009.55 1009.44 1009.32 1009.20 1009.10 1009.05 1009.07 1009.19 1009.41 1009.71 1010.07 1010.47 1010.87 1011.23 1011.53 1011.76 1011.89 1011.93 1011.88 1011.75 1011.53 1011.25 1010.92 1010.54 1010.14 1009.76 1009.41 1009.12 1008.92 1008.82
1013.44 1013.16 1012.76 1012.28 1011.75 1011.22 1010.75 1010.36 1010.08 1009.92 1009.85 1009.83 1009.83 1009.80 1009.72 1009.59 1009.41 1009.23 1009.07 1008.98 1008.99 1009.13 1009.37 1009.72 1010.13 1010.56 1010.97 1011.33 1011.61 1011.80 1011.89 1011.89 1011.78 1011.60 1011.34 1011.01 1010.64 1010.23 1009.83 1009.45 1009.13 1008.88 1008.73
1014.01 1013.64 1013.17 1012.61 1012.01 1011.42 1010.90 1010.48 1010.20 1010.06 1010.04 1010.07 1010.13 1010.14 1010.09 1009.94 1009.72 1009.46 1009.21 1009.02 1008.93 1008.97 1009.14 1009.43 1009.81 1010.22 1010.64 1011.02 1011.34 1011.57 1011.71 1011.75 1011.71 1011.58 1011.38 1011.10 1010.77 1010.40 1010.01 1009.64 1009.31 1009.03 1008.84
1014.29 1013.90 1013.41 1012.86 1012.25 1011.66 1011.14 1010.73 1010.47 1010.35 1010.36 1010.43 1010.52 1010.56 1010.52 1010.36 1010.11 1009.80 1009.47 1009.19 1009.01 1008.95 1009.02 1009.23 1009.53 1009.90 1010.28 1010.64 1010.96 1011.21 1011.38 1011.48 1011.51 1011.45 1011.33 1011.14 1010.88 1010.57 1010.24 1009.89 1009.57 1009.29 1009.07
1014.34 1013.97 1013.54 1013.03 1012.49 1011.95 1011.47 1011.09 1010.86 1010.76 1010.78 1010.86 1010.96 1011.01 1010.97 1010.81 1010.55 1010.20 1009.83 1009.48 1009.21 1009.06 1009.03 1009.13 1009.33 1009.61 1009.91 1010.22 1010.50 1010.75 1010.94 1011.09 1011.17 1011.20 1011.17 1011.07 1010.90 1010.68 1010.41 1010.11 1009.82 1009.54 1009.31
1014.22 1013.91 1013.56 1013.16 1012.71 1012.26 1011.84 1011.51 1011.30 1011.21 1011.22 1011.30 1011.39 1011.44 1011.39 1011.24 1010.97 1010.62 1010.22 1009.84 1009.51 1009.27 1009.15 1009.14 1009.22 1009.38 1009.58 1009.80 1010.02 1010.23 1010.42 1010.59 1010.73 1010.82 1010.87 1010.85 1010.77 1010.63 1010.43 1010.19 1009.94 1009.69 1009.48
1013.99 1013.77 1013.52 1013.23 1012.90 1012.54 1012.20 1011.92 1011.72 1011.62 1011.61 1011.66 1011.73 1011.76 1011.71 1011.56 1011.31 1010.98 1010.59 1010.20 1009.84 1009.55 1009.34 1009.22 1009.19 1009.22 1009.30 1009.42 1009.55 1009.71 1009.88 1010.04 1010.20 1010.34 1010.43 1010.48 1010.46 1010.38 1010.23 1010.05 1009.85 1009.65 1009.47
1013.73 1013.59 1013.44 1013.25 1013.02 1012.75 1012.47 1012.22 1012.03 1011.91 1011.86 1011.87 1011.90 1011.91 1011.86 1011.72 1011.51 1011.21 1010.86 1010.49 1010.14 1009.82 1009.55 1009.35 1009.21 1009.13 1009.09 1009.10 1009.14 1009.23 1009.34 1009.48 1009.63 1009.77 1009.88 1009.95 1009.96 1009.91 1009.80 1009.66 1009.51 1009.37 1009.26
1013.49 1013.40 1013.32 1013.21 1013.05 1012.84 1012.60 1012.36 1012.15 1012.00 1011.91 1011.86 1011.85 1011.83 1011.77 1011.66 1011.49 1011.25 1010.97 1010.65 1010.33 1010.02 1009.73 1009.48 1009.26 1009.09 1008.95 1008.86 1008.81 1008.81 1008.86 1008.94 1009.05 1009.16 1009.25 1009.30 1009.30 1009.25 1009.17 1009.06 1008.95 1008.88 1008.85
1013.32 1013.25 1013.19 1013.10 1012.97 1012.78 1012.54 1012.29 1012.06 1011.86 1011.71 1011.61 1011.54 1011.49 1011.44 1011.35 1011.23 1011.06 1010.86 1010.62 1010.36 1010.09 1009.82 1009.55 1009.30 1009.07 1008.86 1008.69 1008.56 1008.48 1008.46 1008.47 1008.52 1008.56 1008.60 1008.60 1008.56 1008.49 1008.39 1008.29 1008.23 1008.22 1008.28
1013.23 1013.13 1013.04 1012.93 1012.77 1012.55 1012.29 1012.01 1011.73 1011.47 1011.26 1011.11 1010.99 1010.91 1010.85 1010.79 1010.72 1010.62 1010.50 1010.36 1010.19 1009.99 1009.76 1009.52 1009.27 1009.02 1008.77 1008.55 1008.37 1008.23 1008.14 1008.08 1008.05 1008.03 1007.98 1007.92 1007.82 1007.70 1007.57 1007.47 1007.43 1007.48 1007.64
1013.20 1013.02 1012.86 1012.68 1012.45 1012.17 1011.86 1011.53 1011.19 1010.89 1010.62 1010.41 1010.25 1010.14 1010.06 1010.02 1009.99 1009.96 1009.93 1009.87 1009.80 1009.68 1009.54 1009.35 1009.13 1008.90 1008.65 1008.42 1008.20 1008.03 1007.88 1007.77 1007.67 1007.57 1007.45 1007.31 1007.14 1006.97 1006.81 1006.70 1006.68 1006.77 1006.99
1013.19 1012.91 1012.63 1012.34 1012.02 1011.67 1011.29 1010.90 1010.51 1010.16 1009.84 1009.58 1009.38 1009.23 1009.15 1009.11 1009.11 1009.13 1009.17 1009.20 1009.21 1009.19 1009.13 1009.02 1008.86 1008.66 1008.45 1008.23 1008.01 1007.82 1007.64 1007.49 1007.34 1007.18 1007.00 1006.80 1006.58 1006.36 1006.17 1006.04 1006.03 1006.14 1006.42
1013.15 1012.74 1012.34 1011.93 1011.50 1011.06 1010.62 1010.18 1009.75 1009.36 1009.00 1008.71 1008.47 1008.29 1008.18 1008.13 1008.14 1008.20 1008.29 1008.38 1008.47 1008.53 1008.55 1008.52 1008.43 1008.29 1008.12 1007.93 1007.74 1007.55 1007.37 1007.20 1007.03 1006.84 1006.63 1006.39 1006.14 1005.89 1005.68 1005.55 1005.53 1005.65 1005.94
1013.03 1012.49 1011.96 1011.43 1010.91 1010.40 1009.90 1009.42 1008.97 1008.55 1008.18 1007.85 1007.58 1007.38 1007.24 1007.17 1007.17 1007.24 1007.35 1007.48 1007.62 1007.74 1007.83 1007.86 1007.84 1007.76 1007.64 1007.50 1007.34 1007.18 1007.02 1006.86 1006.69 1006.50 1006.30 1006.06 1005.81 1005.56 1005.34 1005.21 1005.18 1005.30 1005.58
1012.79 1012.14 1011.50 1010.88 1010.28 1009.71 1009.18 1008.69 1008.23 1007.81 1007.42 1007.08 1006.78 1006.55 1006.37 1006.27 1006.25 1006.30 1006.40 1006.55 1006.71 1006.87 1007.00 1007.08 1007.11 1007.08 1007.01 1006.91 1006.80 1006.67 1006.55 1006.42 1006.28 1006.13 1005.95 1005.75 1005.53 1005.31 1005.12 1005.00 1004.97 1005.08 1005.34
1012.43 1011.70 1010.98 1010.30 1009.65 1009.06 1008.51 1008.02 1007.56 1007.14 1006.76 1006.40 1006.08 1005.81 1005.60 1005.46 1005.40 1005.41 1005.49 1005.62 1005.79 1005.95 1006.10 1006.21 1006.27 1006.28 1006.25 1006.19 1006.12 1006.03 1005.95 1005.87 1005.79 1005.69 1005.57 1005.43 1005.27 1005.11 1004.96 1004.87 1004.86 1004.96 1005.19
1011.98 1011.20 1010.44 1009.72 1009.06 1008.45 1007.91 1007.42 1006.98 1006.56 1006.17 1005.81 1005.47 1005.16 1004.91 1004.72 1004.61 1004.58 1004.62 1004.72 1004.86 1005.02 1005.17 1005.29 1005.37 1005.41 1005.41 1005.38 1005.34 1005.29 1005.26 1005.23 1005.20 1005.17 1005.13 1005.07 1004.99 1004.90 1004.82 1004.78 1004.80 1004.91 1005.13
1011.49 1010.70 1009.92 1009.19 1008.53 1007.92 1007.38 1006.90 1006.46 1006.04 1005.64 1005.25 1004.88 1004.54 1004.25 1004.01 1003.85 1003.77 1003.77 1003.84 1003.95 1004.09 1004.23 1004.36 1004.45 1004.50 1004.52 1004.52 1004.52 1004.51 1004.52 1004.54 1004.57 1004.60 1004.64 1004.66 1004.67 1004.67 1004.67 1004.70 1004.77 1004.91 1005.13
1011.02 1010.23 1009.47 1008.74 1008.07 1007.47 1006.92 1006.42 1005.96 1005.52 1005.10 1004.68 1004.27 1003.89 1003.55 1003.28 1003.07 1002.96 1002.92 1002.95 1003.05 1003.17 1003.31 1003.44 1003.54 1003.62 1003.66 1003.69 1003.72 1003.75 1003.79 1003.85 1003.93 1004.02 1004.12 1004.21 1004.30 1004.39 1004.48 1004.59 1004.73 1004.92 1005.18
1010.60 1009.84 1009.09 1008.37 1007.69 1007.07 1006.50 1005.96 1005.46 1004.98 1004.50 1004.04 1003.59 1003.17 1002.79 1002.48 1002.24 1002.09 1002.03 1002.05 1002.13 1002.26 1002.41 1002.55 1002.68 1002.78 1002.87 1002.93 1002.99 1003.05 1003.12 1003.22 1003.33 1003.46 1003.61 1003.76 1003.92 1004.08 1004.25 1004.44 1004.66 1004.93 1005.24
1010.26 1009.52 1008.78 1008.05 1007.36 1006.70 1006.07 1005.48 1004.92 1004.37 1003.83 1003.31 1002.81 1002.35 1001.94 1001.59 1001.34 1001.18 1001.11 1001.13 1001.22 1001.36 1001.52 1001.70 1001.87 1002.02 1002.15 1002.26 1002.36 1002.45 1002.55 1002.67 1002.80 1002.95 1003.12 1003.31 1003.51 1003.73 1003.98 1004.25 1004.56 1004.91 1005.30
1009.97 1009.25 1008.51 1007.77 1007.04 1006.32 1005.63 1004.97 1004.32 1003.69 1003.09 1002.50 1001.96 1001.45 1001.01 1000.66 1000.39 1000.23 1000.17 1000.20 1000.30 1000.47 1000.68 1000.90 1001.12 1001.33 1001.51 1001.67 1001.82 1001.95 1002.07 1002.20 1002.34 1002.49 1002.67 1002.87 1003.10 1003.37 1003.67 1004.01 1004.40 1004.84 1005.32
1009.72 1009.00 1008.25 1007.48 1006.70 1005.92 1005.16 1004.41 1003.68 1002.98 1002.30 1001.67 1001.08 1000.55 1000.09 999.73 999.47 999.31 999.26 999.30 999.44 999.63 999.88 1000.15 1000.43 1000.69 1000.93 1001.15 1001.34 1001.50 1001.65 1001.79 1001.92 1002.07 1002.24 1002.44 1002.68 1002.97 1003.32 1003.72 1004.18 1004.71 1005.28
1009.45 1008.72 1007.95 1007.14 1006.32 1005.48 1004.65 1003.83 1003.04 1002.28 1001.55 1000.88 1000.26 999.72 999.26 998.90 998.64 998.49 998.45 998.51 998.66 998.88 999.15 999.46 999.78 1000.09 1000.39 1000.65 1000.88 1001.08 1001.24 1001.39 1001.52 1001.66 1001.82 1002.01 1002.26 1002.56 1002.94 1003.39 1003.91 1004.51 1005.17
1009.15 1008.40 1007.61 1006.77 1005.90 1005.02 1004.14 1003.27 1002.44 1001.64 1000.90 1000.21 999.60 999.06 998.61 998.26 998.01 997.86 997.82 997.88 998.03 998.25 998.53 998.85 999.19 999.53 999.85 1000.15 1000.41 1000.63 1000.81 1000.96 1001.10 1001.23 1001.39 1001.57 1001.82 1002.14 1002.54 1003.03 1003.61 1004.28 1005.00
Thickness
5760 5760 5760 5758 5755 5752 5751 5746 5738 5739 5735 5730 5728 5728 5729 5732 5735 5737 5738 5737 5736 5734 5730 5728 5726 5725 5723 5722 5723 5722 5722 5722 5724 5722 5721 5727 5732 5733 5733 5733 5732 5731 5731
5745 5746 5745 5744 5742 5742 5743 5741 5736 5733 5732 5728 5726 5725 5724 5725 5729 5732 5733 5733 5731 5729 5727 5723 5722 5721 5719 5719 5719 5718 5716 5717 5719 5716 5712 5712 5717 5724 5729 5727 5726 5725 5725
5729 5733 5734 5734 5734 5733 5731 5729 5728 5726 5725 5723 5722 5722 5721 5719 5720 5721 5722 5725 5726 5724 5722 5720 5718 5717 5716 5715 5716 5715 5712 5711 5713 5713 5709 5705 5704 5710 5718 5720 5720 5719 5718
5722 5725 5727 5727 5726 5723 5722 5719 5718 5715 5714 5715 5714 5713 5710 5709 5712 5713 5715 5717 5718 5718 5718 5716 5715 5713 5712 5712 5712 5712 5709 5708 5707 5708 5709 5707 5706 5704 5704 5711 5713 5713 5712
5714 5716 5717 5717 5715 5713 5711 5709 5707 5705 5704 5704 5703 5703 5702 5702 5705 5706 5707 5709 5710 5711 5711 5711 5710 5708 5708 5708 5708 5708 5706 5706 5705 5704 5704 5703 5703 5704 5700 5699 5703 5706 5707
5707 5709 5709 5707 5704 5701 5698 5696 5692 5690 5690 5691 5691 5690 5690 5691 5692 5693 5695 5697 5699 5701 5703 5704 5704 5703 5703 5703 5703 5704 5703 5702 5702 5702 5701 5699 5698 5699 5698 5696 5696 5696 5700
5699 5699 5699 5696 5692 5689 5686 5683 5679 5676 5677 5677 5677 5677 5677 5677 5677 5678 5680 5682 5685 5688 5691 5694 5696 5697 5698 5698 5698 5697 5698 5698 5698 5699 5699 5699 5698 5699 5698 5695 5693 5692 5693
5692 5691 5689 5685 5683 5680 5676 5672 5669 5666 5665 5664 5663 5663 5663 5662 5663 5664 5665 5667 5669 5673 5677 5681 5685 5688 5690 5691 5691 5691 5692 5693 5694 5695 5696 5696 5697 5698 5697 5695 5692 5688 5687
5682 5679 5676 5673 5670 5667 5664 5661 5657 5655 5653 5651 5650 5648 5648 5648 5648 5649 5651 5653 5655 5659 5662 5666 5670 5674 5678 5680 5682 5683 5684 5686 5688 5690 5692 5692 5694 5696 5696 5695 5692 5687 5682
5672 5670 5666 5663 5659 5654 5650 5645 5641 5638 5636 5635 5633 5633 5632 5632 5632 5632 5634 5636 5639 5642 5645 5649 5653 5658 5663 5667 5670 5673 5677 5679 5681 5684 5686 5688 5690 5692 5693 5693 5691 5689 5684
5664 5661 5657 5653 5648 5641 5634 5627 5621 5618 5615 5613 5612 5612 5612 5613 5613 5613 5615 5618 5621 5625 5628 5632 5636 5641 5646 5652 5656 5661 5666 5670 5673 5677 5680 5682 5685 5686 5688 5689 5689 5688 5685
5653 5648 5643 5636 5629 5622 5616 5609 5603 5598 5595 5593 5590 5590 5590 5589 5589 5591 5594 5598 5601 5605 5610 5614 5618 5624 5630 5636 5641 5647 5654 5659 5664 5668 5672 5676 5679 5681 5683 5684 5686 5686 5684
5640 5633 5626 5619 5613 5607 5601 5596 5590 5585 5582 5578 5574 5572 5570 5569 5569 5570 5572 5575 5579 5584 5588 5593 5599 5605 5612 5619 5626 5632 5640 5647 5654 5660 5664 5669 5671 5674 5677 5679 5682 5683 5682
5625 5618 5611 5606 5601 5596 5590 5585 5581 5576 5572 5568 5564 5561 5559 5558 5558 5558 5557 5558 5561 5564 5568 5573 5580 5587 5594 5601 5609 5617 5625 5634 5642 5650 5656 5661 5665 5668 5671 5674 5677 5679 5678
5614 5608 5602 5596 5591 5586 5582 5578 5574 5570 5566 5561 5557 5555 5555 5553 5552 5551 5550 5550 5551 5553 5555 5558 5562 5568 5575 5584 5592 5600 5610 5618 5628 5638 5646 5653 5658 5663 5666 5669 5672 5673 5673
5605 5600 5594 5589 5584 5580 5576 5573 5568 5565 5560 5556 5552 5550 5548 5546 5545 5545 5545 5545 5545 5546 5547 5548 5551 5554 5561 5569 5576 5584 5592 5602 5613 5623 5634 5642 5649 5655 5659 5664 5667 5670 5670
5596 5591 5586 5581 5577 5572 5568 5563 5559 5555 5551 5547 5544 5542 5540 5539 5538 5539 5539 5538 5539 5539 5540 5542 5544 5547 5551 5557 5562 5569 5577 5587 5598 5609 5620 5631 5639 5645 5650 5655 5660 5663 5666
5588 5583 5577 5573 5568 5562 5556 5551 5546 5541 5537 5534 5532 5531 5529 5529 5530 5529 5530 5531 5532 5532 5534 5536 5539 5541 5545 5550 5554 5559 5565 5573 5584 5596 5607 5618 5627 5635 5640 5646 5650 5654 5657
5578 5572 5567 5561 5555 5548 5541 5536 5531 5526 5522 5520 5517 5516 5515 5515 5517 5519 5520 5522 5523 5525 5527 5530 5533 5536 5539 5544 5547 5551 5554 5561 5571 5583 5596 5607 5617 5625 5632 5636 5641 5645 5648
5570 5563 5556 5549 5541 5534 5527 5520 5515 5509 5506 5504 5502 5501 5500 5501 5503 5506 5509 5512 5514 5517 5520 5523 5527 5530 5534 5538 5541 5545 5547 5552 5560 5571 5585 5597 5607 5615 5622 5628 5633 5637 5640
5562 5554 5546 5537 5530 5523 5515 5508 5502 5497 5494 5492 5490 5488 5487 5488 5491 5494 5498 5501 5505 5508 5512 5516 5520 5524 5528 5532 5536 5539 5540 5544 5550 5560 5573 5587 5596 5605 5612 5620 5626 5631 5634
5556 5548 5540 5532 5523 5514 5505 5499 5493 5489 5485 5481 5479 5479 5479 5479 5483 5485 5488 5491 5495 5499 5503 5507 5512 5517 5522 5527 5531 5534 5537 5540 5544 5552 5564 5576 5586 5594 5603 5611 5617 5621 5625
5550 5543 5534 5527 5519 5509 5500 5494 5490 5485 5480 5475 5473 5473 5473 5473 5474 5476 5479 5483 5488 5492 5497 5500 5505 5510 5516 5521 5526 5530 5533 5536 5539 5547 5556 5567 5577 5584 5593 5602 5607 5612 5617
5546 5539 5531 5523 5516 5507 5499 5491 5487 5482 5477 5473 5471 5469 5469 5469 5470 5472 5475 5478 5483 5487 5492 5497 5501 5506 5511 5516 5520 5524 5527 5530 5534 5540 5549 5559 5568 5578 5587 5593 5599 5606 5610
5543 5535 5526 5519 5512 5505 5499 5493 5487 5482 5477 5473 5470 5469 5468 5468 5469 5471 5473 5477 5482 5486 5491 5495 5500 5503 5508 5514 5518 5520 5522 5525 5529 5534 5541 5552 5561 5572 5580 5587 5593 5598 5602
5541 5534 5526 5518 5512 5506 5500 5495 5490 5484 5479 5475 5472 5470 5469 5469 5470 5472 5475 5478 5481 5487 5491 5496 5500 5504 5509 5512 5514 5515 5517 5519 5523 5529 5537 5548 5559 5570 5578 5584 5588 5592 5595